www.pogodaiklimat.ru

Погода и климат >> Архив погоды >> Великобритания >> Аэропорт Гернси


ПОГОДА в Аэропорту Гернси

  • Прогноз погоды в Аэропорту Гернси
  • Монитор погоды в Аэропорту Гернси

АРХИВ ПОГОДЫ в Аэропорту Гернси

Время (UTC), дата Ветер
(напр.,м/с)
 
Видим.   Явления Облачность Т
(С)
Тd
(С)
f
(%)
Тe
(С)
Тes
(С)
Комфортность P
(гПа)
Po
(гПа)
Тmin
(С)
Tmax
(С)
R
(мм)
R24
(мм)
S
(см)
01 13.09 З 5 10 км слаб. морось 9/9 120 м
[Frnb]
+16.3 +15.5 95 +15 +15 1032.2 1020.0
02 13.09 З 5 12 км в посл. час морось 9/9 150 м
[St]
+16.2 +15.7 97 +15 +15 1032.1 1019.9
03 13.09 З 4 4500 м в посл. час морось 9/9 90 м
[St]
+16.1 +15.8 98 +15 +15 1032.1 1019.9
04 13.09 З 4 500 м туман 10/10 <50 м
[St]
+16.2 +16.0 99 +16 +16 1032.1 1019.9
05 13.09 З 4 700 м туман 10/10 <50 м
[St]
+16.3 +16.2 99 +16 +16 1032.6 1020.4
06 13.09 З 3 800 м дождь {морось} 10/10 <50 м
[Frnb]
+16.2 +16.1 99 +16 +16 1033.1 1020.8 +15.9 1
07 13.09 СЗ 2 2000 м слаб. морось {туман} 10/10 <50 м
[Frnb]
+16.3 +16.2 99 +16 +16 1033.2 1021.0
08 13.09 СЗ 2 8000 м в посл. час морось 9/9 30 м
[Sc]
+16.6 +16.5 99 +17 +17 1033.4 1021.2
09 13.09 СЗ 2 15 км {дождь, туман} 9/9 60 м
[Sc]
+16.8 +16.6 99 +17 +18 1033.9 1021.7
10 13.09 С 2 15 км в посл. час морось 9/9 60 м
[Sc]
+17.1 +16.8 98 +17 +18 1034.2 1022.0
11 13.09 С 3 12 км слаб. морось 9/9 60 м
[Sc]
+17.5 +17.1 98 +17 +18 1034.1 1021.9
12 13.09 СВ 5 3500 м дождь {морось} 10/10 30 м
[Frnb]
+16.2 +16.0 99 +15 +15 1034.0 1021.7 0.7
13 13.09 СВ 4 2500 м слаб. морось {дождь} 10/10 30 м
[Frnb]
+16.0 +15.8 99 +15 +15 1034.4 1022.1
14 13.09 СВ 5 15 км в посл. час морось 9/9 90 м
[St]
+16.3 +15.5 95 +15 +16 1033.8 1021.5
15 13.09 СВ 4 35 км {дождь, морось} 9/9 210 м
[Sc]
+16.7 +15.0 90 +16 +17 1033.7 1021.5
16 13.09 СВ 4 35 км 9/9 180 м
[Sc]
+16.8 +15.1 90 +16 +16 1033.2 1021.0
17 13.09 СВ 4 30 км слаб. морось 9/9 180 м
[Sc]
+16.7 +15.2 91 +16 +16 1033.4 1021.2
18 13.09 СВ 4 30 км {дождь, морось} 9/9 180 м
[Sc]
+16.4 +15.4 94 +16 +16 1033.6 1021.4 +17.5 0.7
19 13.09 СВ 3 25 км в посл. час морось 9/9 90 м
[Sc]
+16.6 +16.0 96 +16 +16 1033.3 1021.1
20 13.09 СВ 4 30 км 9/9 90 м
[Sc]
+16.6 +15.9 96 +16 +16 1033.7 1021.5
21 13.09 СВ 4 25 км {морось} 9/9 120 м
[Sc]
+16.4 +15.8 96 +16 +16 1033.9 1021.6
22 13.09 СВ 4 35 км 9/9 120 м
[Sc]
+16.3 +15.5 95 +16 +16 1034.0 1021.7
23 13.09 СВ 4 35 км 3/3 150 м
[Sc]
+15.9 +15.3 96 +15 +15 1033.7 1021.4
00 14.09 СВ 4 35 км {морось} 1/1 180 м
[Sc]
+15.7 +15.0 96 +15 +15 1033.4 1021.1 0.0
01 14.09 В 5 35 км 1/1 180 м
[Sc]
+15.5 +14.3 93 +14 +14 1032.8 1020.5
02 14.09 СВ 4 35 км 1/1 1200 м
[Sc]
+15.1 +13.4 90 +14 +14 1032.4 1020.1
03 14.09 СВ 4 35 км 5/5 1200 м
[Sc]
+15.3 +13.9 91 +14 +14 1032.7 1020.4
04 14.09 СВ 5 35 км 8/8 600 м
[Cu Sc]
+15.6 +14.3 92 +14 +14 1032.2 1019.9
05 14.09 СВ 5 35 км 3/3 240 м
[Sc]
+15.7 +14.5 93 +15 +15 1032.1 1019.8
06 14.09 СВ 5 35 км 9/9 240 м
[Sc]
+15.9 +14.6 92 +15 +15 1032.5 1020.2 +14.9 0.0
07 14.09 В 5 30 км 8/8 240 м
[St]
+15.8 +14.6 93 +15 +15 1032.2 1019.9
08 14.09 В 6 30 км 5/5 240 м
[St Ci fib]
+16.4 +14.9 91 +15 +16 1031.9 1019.7
09 14.09 В 5 30 км 1/1 240 м
[Cu Sc Ci fib]
+17.7 +15.5 87 +17 +19 1031.8 1019.6
10 14.09 В 5 30 км 1/1 240 м
[Cu Sc Ci fib]
+18.0 +15.3 84 +18 +21 1032.0 1019.8
11 14.09 В 5 30 км 1/1 240 м
[Cu Sc Ci fib]
+19.6 +15.5 77 +21 +26 комфорт 1031.3 1019.2
12 14.09 СВ 5 30 км 1/1 480 м
[Cu hum]
+19.9 +15.2 74 +22 +27 комфорт 1030.8 1018.7
13 14.09 СВ 5 30 км 1/1 480 м
[Cu hum]
+19.9 +15.8 77 +22 +27 комфорт 1030.3 1018.2
14 14.09 СВ 4 30 км 1/1 480 м
[Cu hum]
+20.1 +15.9 77 +23 +27 комфорт 1028.6 1016.6
15 14.09 СВ 4 30 км 1/1 600 м
[Cu hum Ci fib]
+20.2 +15.4 74 +23 +26 комфорт 1029.0 1017.0
16 14.09 СВ 4 35 км 1/0
[Ci fib]
+19.0 +15.3 79 +20 +22 1028.9 1016.8
17 14.09 СВ 4 35 км 1/0
[Ci fib]
+17.7 +14.6 82 +17 +18 1028.8 1016.7
18 14.09 СВ 4 35 км 1/0
[Ci fib]
+16.7 +14.4 86 +16 +16 1028.6 1016.4 +20.4
19 14.09 СВ 3 35 км 1/0
[Ci fib]
+15.7 +14.6 93 +15 +15 1028.6 1016.4
20 14.09 СВ 3 30 км 1/0
[Ci fib]
+15.3 +14.4 94 +15 +15 1028.5 1016.3
21 14.09 СВ 2 30 км 1/0
[Ci fib]
+14.9 +14.0 94 +15 +15 1028.8 1016.5
22 14.09 СВ 2 30 км 1/0
[Ci fib]
+14.6 +14.2 97 +14 +14 1028.5 1016.2
23 14.09 В 3 30 км 1/0
[Ci fib]
+14.2 +13.8 97 +13 +13 1028.0 1015.7
00 15.09 СВ 3 30 км ясно +14.5 +13.9 96 +14 +14 1027.7 1015.4
01 15.09 С 3 5000 м туман на расстоянии 1/1 <50 м
[St]
+14.5 +14.3 99 +13 +13 1027.6 1015.3
02 15.09 С 3 8000 м местами туман поземный ясно +14.3 +14.1 99 +13 +13 1027.2 1014.9
03 15.09 С 3 4000 м в посл. час туман 3/3 <50 м
[St]
+14.3 +14.2 99 +13 +13 1026.9 1014.6
04 15.09 С 3 6000 м туман на расстоянии 4/4 <50 м
[St]
+14.2 +13.9 98 +13 +13 1026.6 1014.3
05 15.09 С 3 15 км 1/1 90 м
[St Ci fib]
+13.3 +13.0 98 +12 +12 1026.6 1014.3
06 15.09 С 2 15 км местами туман поземный 1/0
[Ci fib]
+13.2 +12.7 97 +12 +12 1026.8 1014.5 +12.9 0.0
07 15.09 С 2 20 км 1/1 150 м
[St Ci fib]
+14.2 +13.9 98 +14 +14 1026.7 1014.4
08 15.09 С 3 25 км 1/1 150 м
[St Ci fib]
+15.8 +15.4 97 +15 +17 1026.8 1014.6
09 15.09 СЗ 4 25 км 4/4 210 м
[St Ci fib]
+16.3 +14.9 91 +16 +18 1027.2 1015.0
10 15.09 С 3 25 км 1/1 210 м
[St Ci fib]
+17.3 +14.2 82 +17 +22 1026.9 1014.8
11 15.09 С 2 30 км 1/1 300 м
[Cu hum Ci fib]
+19.0 +14.6 76 +21 +29 комфорт 1026.5 1014.4
12 15.09 С 2 30 км 1/1 360 м
[Cu hum Ci fib]
+18.9 +14.2 74 +21 +30 комфорт 1026.3 1014.2
13 15.09 С 3 35 км 1/1 360 м
[Cu hum Ci fib]
+18.9 +14.8 77 +20 +27 1026.1 1014.0
14 15.09 С 2 35 км 1/1 300 м
[Cu hum Ci fib]
+18.9 +14.4 75 +20 +27 1025.4 1013.4
15 15.09 СЗ 4 35 км 1/1 300 м
[Cu hum Ci fib]
+18.0 +14.0 77 +18 +22 1025.1 1013.0
16 15.09 С 4 35 км 1/0
[Ci fib]
+17.5 +13.8 79 +17 +19 1024.7 1012.6
17 15.09 С 4 40 км 1/0
[Ci fib]
+16.9 +13.6 81 +17 +17 1024.5 1012.4
18 15.09 СЗ 3 40 км 1/0
[Ci fib]
+15.8 +13.4 86 +15 +15 1024.3 1012.1 +19.2
19 15.09 СЗ 2 40 км 1/0
[Ci fib]
+13.8 +13.0 95 +13 +13 1024.6 1012.3
20 15.09 СЗ 3 40 км 1/0
[Ci fib]
+13.2 +12.7 97 +12 +12 1024.9 1012.6
21 15.09 СЗ 3 40 км 1/0
[Ci fib]
+12.9 +12.8 99 +12 +12 1024.7 1012.4
22 15.09 СЗ 3 30 км местами туман поземный 1/0
[Ci fib]
+13.2 +13.0 99 +12 +12 1024.9 1012.6
23 15.09 З 2 30 км местами туман поземный 1/0
[Ci fib]
+13.7 +13.6 99 +13 +13 1024.5 1012.2
00 16.09 СЗ 2 6000 м местами туман поземный 4/4 90 м
[St Ci fib]
+14.1 +14.1 100 +13 +13 1024.2 1012.0
01 16.09 З 3 300 м туман 9/9 <50 м
[St]
+13.9 +13.6 98 +13 +13 1023.8 1011.6
02 16.09 З 2 1600 м в посл. час туман 9/9 90 м
[St]
+15.2 +15.2 100 +15 +15 1023.9 1011.7
03 16.09 С 2 1400 м туман на расстоянии 9/9 <50 м
[St]
+15.5 +15.5 100 +15 +15 1023.2 1011.0
04 16.09 С 2 800 м туман 9/9 <50 м
[St]
+15.4 +15.4 100 +15 +15 1022.7 1010.5
05 16.09 СЗ 4 1900 м в посл. час туман 9/9 <50 м
[St]
+15.6 +15.6 100 +15 +15 1022.9 1010.7
06 16.09 СЗ 2 3000 м дымка {туман} 9/9 30 м
[St]
+15.2 +15.2 100 +15 +15 1022.7 1010.5 +12.9
07 16.09 СЗ 3 8000 м слаб. морось 9/9 30 м
[Frnb]
+15.2 +15.1 99 +15 +15 1023.4 1011.2
08 16.09 СЗ 3 15 км в посл. час морось 9/9 30 м
[St]
+15.3 +15.2 99 +15 +15 1023.8 1011.6
09 16.09 С 3 15 км {морось} 9/9 60 м
[St]
+15.3 +15.0 98 +15 +15 1023.9 1011.7
10 16.09 З 2 2500 м туман на расстоянии 9/9 <50 м
[St]
+15.5 +15.3 99 +15 +16 1024.0 1011.8
11 16.09 СЗ 2 9000 м в посл. час морось 9/9 30 м
[St]
+15.4 +15.1 98 +15 +16 1023.8 1011.6
12 16.09 СЗ 3 12 км {морось} 10/10 30 м
[St]
+15.8 +14.9 94 +15 +15 1023.8 1011.6 0.0
13 16.09 С 4 18 км 10/10 90 м
[St]
+16.4 +14.7 90 +16 +16 1023.7 1011.6
14 16.09 С 3 20 км 9/9 120 м
[St]
+16.3 +14.6 90 +16 +16 1023.7 1011.6
15 16.09 СЗ 3 25 км 9/9 120 м
[St]
+15.8 +14.5 92 +15 +16 1023.4 1011.2
16 16.09 СЗ 3 25 км 9/9 90 м
[St]
+15.7 +14.6 93 +15 +15 1023.3 1011.1
17 16.09 СЗ 3 30 км 9/1 180 м
[St Ci fib]
+16.4 +14.1 86 +16 +17 1022.8 1010.7
18 16.09 СЗ 3 35 км 9/4 180 м
[St Ci fib]
+16.0 +14.6 91 +15 +15 1023.1 1011.0 +16.7
19 16.09 СЗ 3 35 км 9/1 120 м
[St Ci fib]
+15.5 +14.9 96 +15 +15 1023.0 1010.8
20 16.09 СЗ 3 35 км 9/1 120 м
[St Ci fib]
+15.2 +14.9 98 +15 +15 1023.5 1011.3
21 16.09 СЗ 2 35 км 8/1 120 м
[St Ci fib]
+15.3 +15.1 99 +15 +15 1023.5 1011.3
22 16.09 СЗ 3 30 км 8/5 120 м
[Sc Ci fib]
+15.8 +15.5 98 +15 +15 1023.5 1011.3
23 16.09 СЗ 3 30 км 9/8 120 м
[Sc Ci fib]
+16.1 +15.9 99 +16 +16 1023.3 1011.2
00 17.09 С 3 30 км 9/9 120 м
[Sc]
+16.2 +16.1 99 +16 +16 1023.1 1011.0
01 17.09 С 3 30 км 9/9 150 м
[Sc]
+16.5 +16.1 97 +16 +16 1022.6 1010.5
02 17.09 С 3 20 км слаб. морось 9/9 90 м
[Sc]
+16.5 +16.2 98 +16 +16 1022.6 1010.5
03 17.09 С 4 8000 м слаб. морось 9/9 60 м
[Sc]
+16.4 +16.2 99 +16 +16 1022.7 1010.6
04 17.09 С 4 8000 м в посл. час морось 9/9 60 м
[St]
+16.3 +16.2 99 +16 +16 1022.8 1010.7
05 17.09 С 3 1800 м дымка 10/10 30 м
[St]
+16.4 +16.3 99 +16 +16 1022.5 1010.4
06 17.09 СВ 3 3000 м дымка 10/10 <50 м
[St]
+16.6 +16.6 100 +16 +16 1022.9 1010.8 +15.0 0.0
07 17.09 СВ 4 8000 м в посл. час дождь 9/9 120 м
[St]
+16.3 +16.0 98 +16 +16 1023.3 1011.2
08 17.09 СВ 5 14 км 9/9 180 м
[St]
+16.1 +15.0 93 +15 +15 1023.9 1011.8
09 17.09 СВ 6 15 км 9/9 240 м
[Sc]
+16.1 +14.0 87 +15 +15 1024.4 1012.2
10 17.09 СВ 6 30 км 9/9 240 м
[Cu Sc]
+15.7 +13.3 86 +14 +15 1025.0 1012.8
11 17.09 СВ 7 35 км 8/8 540 м
[Sc]
+16.0 +11.5 75 +15 +15 1025.0 1012.8
12 17.09 СВ 7 40 км {дождь} 4/4 600 м
[Sc]
+16.4 +11.3 72 +15 +17 1024.5 1012.4 0.1
13 17.09 СВ 6 45 км 1/1 600 м
[Sc]
+17.5 +11.1 66 +17 +20 1024.3 1012.2
14 17.09 СВ 5 45 км ясно +17.4 +10.6 64 +17 +21 1024.3 1012.2
15 17.09 СВ 6 45 км ясно +16.6 +10.0 65 +16 +18 1024.3 1012.2
16 17.09 СВ 7 45 км ясно +16.1 +9.0 63 +15 +16 1024.1 1012.0
17 17.09 СВ 5 45 км ясно +15.5 +9.5 67 +14 +15 1024.2 1012.0
18 17.09 СВ 5 45 км ясно +14.7 +9.7 72 +13 +13 1024.2 1012.0 +17.7
19 17.09 СВ 4 45 км ясно +14.2 +10.1 76 +13 +13 1024.6 1012.4
20 17.09 СВ 5 45 км ясно +14.5 +10.2 75 +13 +13 1024.9 1012.7
21 17.09 СВ 4 45 км ясно +14.2 +10.8 80 +13 +13 1025.4 1013.2
22 17.09 В 4 45 км ясно +14.0 +11.4 84 +13 +13 1025.5 1013.2
23 17.09 В 4 45 км 1/1 480 м
[Cu hum]
+14.2 +11.5 84 +13 +13 1025.5 1013.3
00 18.09 В 5 45 км 1/1 570 м
[Cu hum]
+14.4 +10.9 79 +13 +13 1026.0 1013.8
01 18.09 СВ 6 45 км 1/1 660 м
[Cu hum]
+14.4 +10.3 76 +13 +13 1026.0 1013.8
02 18.09 В 7 45 км 1/1 660 м
[Cu hum]
+14.2 +9.8 75 +12 +12 1025.7 1013.5
03 18.09 В 7 45 км 1/1 660 м
[Cu hum]
+14.0 +9.6 75 +12 +12 1026.0 1013.7
04 18.09 В 6 45 км 1/1 720 м
[Cu hum]
+13.9 +9.4 74 +12 +12 1026.3 1014.0
05 18.09 В 6 45 км 1/1 720 м
[Cu hum]
+13.6 +8.6 72 +12 +12 1026.4 1014.1
06 18.09 В 5 45 км 1/1 750 м
[Cu Sc]
+13.7 +8.5 71 +12 +12 1026.8 1014.5 +13.4
07 18.09 В 6 45 км 3/3 800 м
[Cu hum]
+14.4 +9.0 70 +13 +13 1027.2 1014.9
08 18.09 В 6 50 км 3/3 800 м
[Cu hum]
+15.8 +9.6 67 +14 +15 1027.7 1015.5
09 18.09 В 6 50 км 1/1 720 м
[Cu hum]
+16.4 +9.3 63 +15 +17 1028.1 1015.9
10 18.09 В 6 50 км 1/1 750 м
[Cu hum]
+17.0 +10.0 63 +16 +19 1028.1 1015.9
11 18.09 В 6 40 км 3/3 750 м
[Cu hum]
+17.4 +9.5 60 +17 +19 1028.2 1016.1
12 18.09 В 6 40 км 1/1 840 м
[Cu hum]
+17.7 +8.9 56 +17 +20 1027.5 1015.4
13 18.09 СВ 7 35 км 1/1 840 м
[Cu hum]
+17.5 +8.6 56 +17 +19 1027.8 1015.7
14 18.09 СВ 7 30 км 1/1 700 м
[Cu hum]
+17.2 +10.7 66 +16 +18 1027.5 1015.4
15 18.09 СВ 7 30 км 1/1 800 м
[Cu hum]
+16.8 +10.5 66 +16 +17 1027.6 1015.4
16 18.09 СВ 6 30 км 1/1 700 м
[Cu hum]
+16.1 +9.6 65 +15 +16 1027.3 1015.1
17 18.09 СВ 7 35 км 1/1 700 м
[Cu hum]
+15.5 +9.9 69 +14 +14 1027.4 1015.2
18 18.09 СВ 6 40 км 1/1 240 м
[St]
+14.7 +9.4 71 +13 +13 1027.4 1015.2 +18.2
19 18.09 СВ 5 40 км 1/0
[Ci fib]
+14.2 +9.2 72 +13 +13 1028.1 1015.8
20 18.09 В 6 45 км 1/0
[Ci fib]
+14.4 +8.4 67 +13 +13 1028.4 1016.1
21 18.09 В 6 45 км ясно +14.4 +9.2 71 +13 +13 1028.6 1016.3
22 18.09 В 5 45 км ясно +14.6 +9.6 72 +13 +13 1029.1 1016.8
23 18.09 В 6 45 км ясно +14.6 +9.9 73 +13 +13 1029.2 1016.9
00 19.09 В 5 40 км ясно +14.4 +9.7 73 +13 +13 1029.2 1016.9
01 19.09 В 5 40 км ясно +14.1 +9.9 76 +12 +12 1029.2 1016.9
02 19.09 В 5 40 км 1/1 660 м
[Cu hum]
+14.2 +10.7 79 +13 +13 1028.9 1016.6
03 19.09 В 5 40 км 1/1 660 м
[Cu hum]
+14.1 +10.3 78 +12 +12 1028.8 1016.5
04 19.09 В 6 40 км 1/1 660 м
[Cu hum]
+13.9 +10.1 78 +12 +12 1028.7 1016.4
05 19.09 В 6 40 км 1/1 660 м
[Cu hum]
+13.6 +9.7 77 +12 +12 1028.6 1016.3
06 19.09 В 4 45 км 1/1 600 м
[Cu hum]
+13.1 +10.2 83 +11 +11 1029.0 1016.7 +13.0
07 19.09 В 5 45 км 1/1 540 м
[Cu hum]
+13.9 +10.3 79 +12 +12 1029.3 1017.0
08 19.09 В 7 45 км 1/1 540 м
[Cu hum]
+15.2 +10.3 73 +13 +14 1029.5 1017.2
09 19.09 В 8 45 км 1/1 540 м
[Cu hum Ci fib]
+16.0 +8.9 63 +14 +15 1030.0 1017.8
10 19.09 В 7 50 км 1/1 240 м
[Cu Sc Ci fib]
+16.5 +9.6 64 +15 +17 1029.8 1017.6
11 19.09 В 6 50 км 3/1 660 м
[Cu Sc Ci fib]
+17.3 +9.2 59 +16 +19 1029.5 1017.3
12 19.09 В 6 50 км 1/1 840 м
[Cu Sc Ci fib]
+18.3 +9.7 57 +18 +21 1029.3 1017.2
13 19.09 В 6 50 км 1/1 840 м
[Cu Sc Ci fib]
+18.1 +9.2 56 +18 +21 1028.6 1016.5
14 19.09 СВ 8 50 км 1/1 840 м
[Cu hum Ci fib]
+17.7 +10.9 64 +17 +18 1028.3 1016.2
15 19.09 СВ 8
{14}
50 км 1/1 840 м
[Cu hum]
+17.1 +10.8 66 +16 +17 1027.7 1015.6
16 19.09 СВ 8
{14}
50 км 1/1 840 м
[Cu hum]
+16.7 +10.7 68 +15 +16 1027.3 1015.1
17 19.09 СВ 8
{14}
50 км 1/1 720 м
[Cu hum]
+16.0 +11.0 72 +14 +14 1027.0 1014.8
18 19.09 СВ 9
{14}
50 км 1/1 720 м
[Cu hum]
+15.2 +11.0 76 +13 +13 1026.8 1014.6
19 19.09 В 8 50 км 1/1 600 м
[Cu hum]
+15.1 +11.4 79 +13 +13 1027.2 1015.0
20 19.09 В 7 50 км 1/1 600 м
[Cu hum]
+14.9 +11.4 80 +13 +13 1027.1 1014.9
21 19.09 В 8 50 км 1/1 600 м
[Cu hum]
+15.0 +11.5 80 +13 +13 1027.2 1015.0
22 19.09 В 7 50 км ясно +14.9 +11.6 81 +13 +13 1027.1 1014.9
23 19.09 В 9 45 км ясно +15.0 +12.1 83 +13 +13 1026.5 1014.3
00 20.09 В 7 45 км 1/1 450 м
[Cu hum]
+14.9 +12.5 86 +13 +13 1026.0 1013.8
01 20.09 В 9
{13}
45 км 1/1 450 м
[Cu hum]
+15.0 +9.7 71 +13 +13 1025.7 1013.5

 

Местоположение метеостанции Аэропорт Гернси (Великобритания): широта 49.43 долгота -2.60 высота над уровнем моря 101 м.

В архиве по умолчанию представлена погода в Аэропорту Гернси за последнюю неделю. Архивные данные за месяц целиком и за предыдущие месяцы, начиная с января 2011 года, Вы можете получить, выбрав интересующий диапазон дат из раскрывающегося списка и нажав кнопку "Ввод!".


*Определитесь, кто Вы:
робот инопланетянин человек

Внимание! Время в таблицах - всемирное. Для получения местного времени необходимо прибавить поправку, которая равна 0 ч.

Смотрите также архив погоды в соседних городах и на ближайших метеорологических станциях:

Погода в Аэропорту Джерси (Великобритания) (37 км)
Погода в Кап де ла Аг (Франция) (58 км)
Погода в Картере (Франция) (58 км)
Погода в Вигите ду Аумет (Франция) (83 км)
Погода в Мопертю-сюр-Мере (Франция) (84 км)
Погода в Перрос-Гиреке (Франция) (92 км)
Погода на Пуэнт-дю-Оке (Франция) (98 км)
Погода в Ланьоне (Франция) (99 км)
Погода в Барфлере (Франция) (101 км)
Погода в Сен-Бриё аэропорту (Франция) (102 км)

Пояснения к столбцам:

Ветер - указаны скорость ветра в м/с - средняя за 10 мин, порывы в срок и между сроками (в фигурных скобках) и направление, откуда дует ветер: С - северный, СВ - северо-восточный, В - восточный, ЮВ - юго-восточный, Ю - южный, ЮЗ - юго-западный, З - западный, СЗ - северо-западный.
Видимость - горизонтальная дальность видимости в метрах или километрах. При видимости от 1 до 10 км при отсутствии осадков обычно наблюдается дымка, при ухудшении видимости до 1 км и менее - туман. В сухую погоду видимость может ухудшаться дымом, пылью или мглою.
Явления - указаны атмосферные явления, наблюдавшиеся в срок или в последний час перед сроком; фигурными скобками обозначены явления, наблюдавшиеся между сроками (за 1-3 часа до срока); квадратными скобками обозначены град или гололедные отложения с указанием их диаметра в мм.
Облачность - указаны через наклонную черту общая и нижняя облачность в баллах и высота нижней границы облаков в метрах; квадратными скобками обозначены формы облаков: Ci - перистые, Cs - перисто-слоистые, Cc - перисто-кучевые, Ac - высококучевые, As - высокослоистые, Sc - слоисто-кучевые, Ns - слоисто-дождевые, Cu - кучевые, Cb - кучево-дождевые. Подробнее классификацию облаков см. в Атласе облаков (PDF).
T - Температура воздуха - температура, измеренная на высоте 2 м над землей.
Td - Температура точки росы - температура, при понижении до которой содержащийся в воздухе водяной пар достигнет насыщения.
f - Относительная влажность воздуха - влажноcть воздуха, измеренная на высоте 2 м над землей.
Te - Эффективная температура - температура, которую ощущает одетый по сезону человек в тени. Характеристика душности погоды. При расчете учитывается влияние влажности воздуха и скорости ветра на теплоощущения человека.
Tes - Эффективная температура на солнце - температура, которую ощущает человек, с поправкой на солнечный нагрев. Характеристика знойности погоды. Зависит от высоты солнца над горизонтом, облачности и скорости ветра. Ночью, в пасмурную погоду, а также при ветре 12 м/с и более поправка равна нулю.
P - Атмосферное давление - приведенное к уровню моря атмосферное давление.
Po - Атмосферное давление - измеренное на уровне метеостанции атмосферное давление.
Tmin - Минимальная температура - минимум температуры воздуха на высоте 2 м над землей.
Tmax - Максимальная температура - максимум температуры воздуха на высоте 2 м над землей.
R - Количество осадков - Количество выпавших осадков за период времени, мм. При наведении курсора мыши на число - период времени, за который выпало указанное количество осадков.
R24 - Количество осадков - Количество выпавших осадков за 24 часа, мм.
S - Снежный покров - Высота снежного покрова, см. При наведении курсора мыши на число - состояние снежного покрова и степень покрытия местности в баллах.